Location: Karlsruhe
(49.0131°N, 8.3874°E)
Time: 18:23:08
(UTC+02:00)

ISS - Pass Details

Date: 07 January 2018
Orbit: 401 x 409 km, 51.6° (Epoch: 22 August)

Event Time Altitude Azimuth Distance (km) Brightness Sun altitude
Exits shadow 05:54:07 40° 48° (NE) 643 -2.6 -22.9°
Drops below altitude 10° 05:56:37 10° 78° (ENE) 1,516 0.0 -22.5°
Sets 05:58:46 0° 83° (E) 2,384 1.4 -22.1°
